Showing default

COSMOS 2276 (GLONASS), 23043

Orbit data source: Space-Track

COSMOS 2276 (GLONASS), 23043 is a payload satellite owned by VKS (CIS) in MEO that was launched on Mon, 11 Apr 1994 UTC via a PROTON-K/DM-2 launch vehicle from the Tyuratam Missile And Space Complex (TTMTR). Payload-class satellites include a variety of spacecraft equipped with specific instruments for various scientific and technological missions. These include communications satellites like Starlink; space stations such as the ISS; scientific satellites like the Hubble; Earth observation satellites from companies like Planet Labs, Umbra, and HawkEye 360; GPS; miniature CubeSats for education and research; and military/defense satellites.

Loading next visibility...
Identifier
23043, 1994-021A
Orbit
MEO
Country
Flag of CISCIS
Related business
Manufacturer
Polyot
Mission
Non-operational Defense Navigation
Bus & Motor
URAGAN, Unknown motor
Mass
1,300 kg wet, ~1,200 kg dry
Launch date (UTC)
1994-04-11 (32 years ago)
Launch vehicle
PROTON-K/DM-2
Launch site
Tyuratam Missile And Space Complex (TTMTR)
Object type
Payload
Rocket body
Debris
Shape & HBR
Cyl + 2 Pan, 4.2 m
Radar Cross Section
14.707 m², Large (>1 m²)

Expand to show TLE details & history
Last TLE update: 5 days ago

TLE from 5 days ago
0 COSMOS 2276 (GLONASS)
1 23043U 94021A   26169.28148409 -.00000049  00000-0  00000+0 0  9991
2 23043  63.9923 300.7591 0020846 187.8844 171.8190  2.13099348250251
Epoch: 2026-06-18T06:45Z
TLE epoch observation values (Epoch: 2026-06-18T06:45:20.225Z)
Latitude
-0.23345°
Longitude
-67.23229°
Altitude
19,183.3 km
Speed
3.945 km/s
True Right ascension
20h 02m 30s
True Declination
0° 13' 59"
Sunlit
Object was in daylight at epoch
Visualization orbit readout
Latitude
Unknown
Longitude
Unknown
Altitude
Unknown
Speed
Unknown
Apparent Right ascension
Unknown
Apparent Declination
Unknown
Sunlit
N/A
Visualization observer readout
Local Sidereal Time
12:09:28
Azimuth
Unknown
Elevation
Unknown
Doppler factor
Unknown
Orbital elements
Apogee altitude
19,182.923 km
Perigee altitude
19,076.576 km
Semi-major axis
25,507.886 km
Eccentricity
0.00208
Inclination
63.9923°
RAAN
300.7591°
Arg. of periapsis
187.8844°
True anomaly
171.8529°
Mean anomaly
171.819°
Eccentric anomaly
171.83596°
Mean motion
0.53276 °/min
Orbital period
675.73 mins
BSTAR
0
Loading maneuver chart data...
Computing Atmospheric mass density...
Loading historical data...
Loading historical data...
Loading historical data...
Loading historical data...
Loading historical data...
Loading historical data...
Loading historical data...

Documentation

Showing up to 5 results
|